METEOR 2-17 DEB

Satellite information

Favourite Embed

Satellite Type and Status

DEBRISIN ORBIT

Key statistics

Satellite METEOR 2-17 DEB at a glance.

Uptime

13833

Days in orbit

Revolutions

≈ 14.0

Per day

Orbit

LEO

Low Earth Orbit

Inclination

82.5

Latest

Satellite identification and parameters

Extended collection of information and parameters for METEOR 2-17 DEB.

Object identification

Identified? True

Debris? True

Object name: METEOR 2-17 DEB

International designator: 1988-005AG

Object number (NORAD): 35372

Object ID (CCSDS): 35372

Country: COMMONWEALTH OF INDEPENDENT STATES (CIS)

Current information (Y/N): Y

RCS size: SMALL

Orbital parameters

Period: 102.774 minutes

Inclination: 82.5279 deg

SMA: 7268.007 km

Apoapsis: 903.368 km

Periapsis: 876.375 km

RAAN: 69.9679 deg

Eccentricy: 0.00185692

Argument of periapsis: 67.0211 deg

Mean anomaly: 359.9921 deg

Mean motion: 14.01134383 rev/day

Mean motion (dot): 0.0000308 rev/day2

B* drag term: 0.00203924 1/REarth

Two-line elements (TLE)

Creation date: Dec. 14, 2025, 3:07 a.m.

Reference frame: TEME

Reference center: EARTH

Epoch: Dec. 13, 2025, 2:32 p.m. UTC

TLE line 0: 0 METEOR 2-17 DEB

TLE line 1: 1 35372U 88005AG 25347.60574170 .00003080 00000-0 20392-2 0 9991

TLE line 2: 2 35372 82.5279 69.9679 0018569 67.0211 359.9921 14.01134383638011

Live tracking on map

Real-time ground track for satellite METEOR 2-17 DEB.

In-orbit conjunctions

A list of the most updated potential collisions computed for object METEOR 2-17 DEB.

Target Orbit TCA Probability of collision Miss distance Type
MOS 1A (MOMO 1) SSO 2025-03-21 10:50:07 0.000696163 243.0 (m) PAYLOAD

Associated space launch

Second generation soviet meteorological satellite

METEOR 2-17 DEB was lifted into orbit during the mission ‘Tsiklon-3 | Meteor-2 17’, on board a Tsiklon-3 space rocket.

The launch took place on Jan. 30, 1988, 10:59 a.m. from 32/1.

For more information about the launch, click the button.

Launch to space Tsiklon-3 | Meteor-2 17
Tsiklon-3 | Meteor-2 17

Agency: N/A

Status: Launch Successful

Launch date: Jan. 30, 1988, 10:59 a.m. UTC

Rocket: Tsiklon-3

Launch pad: 32/1

Location: Plesetsk Cosmodrome, Russian Federation

...

Latest news about this satellite

There are no fresh news available about this satellite. Check back as we update our databases every day.


Newsletter sign-up

Weekly statistics, charts and insights to help you stay on top of the space industry.